Hourly Data Report for September 08, 2017

All times are specified in Local Standard Time (LST). Add 1 hour to adjust for Daylight Saving Time where and when it is observed.

IQALUIT CLIMATE
NUNAVUT

63°44'50.000" N
68°32'40.000" W
33.50 m
2402592
71321
XFB

Download Data

Hourly Data (September 2017)
Hourly Data Report for September 8, 2017
Temp Definition
°C
Dew Point Temp Definition
°C
Rel Hum Definition
%
Wind Dir Definition
10's deg

Wind Spd Definition
km/h
Visibility Definition
km
Stn Press Definition
kPa
Hmdx Definition


Wind Chill Definition


Weather Definition


TIME
00:00 2.7 0.6 86 15 15   101.25     LegendNANA
01:00 2.4 0.6 88 14 10   101.22     LegendNANA
02:00 2.4 0.7 89 14 9   101.21     LegendNANA
03:00 2.3 0.5 88 16 5   101.20     LegendNANA
04:00 2.1 0.7 91 14 12   101.17     LegendNANA
05:00 2.1 0.8 91 17 6   101.16     LegendNANA
06:00 2.0 0.9 92 13 7   101.15     LegendNANA
07:00 2.3 1.1 92 15 9   101.13     LegendNANA
08:00 2.6 1.0 89 17 8   101.11     LegendNANA
09:00 2.7 0.9 88 15 9   101.07     LegendNANA
10:00 2.8 1.1 88 15 10   101.05     LegendNANA
11:00 3.1 1.2 87 14 10   100.99     LegendNANA
12:00 3.4 1.3 86 13 9   100.96     LegendNANA
13:00 4.2 1.9 85 14 12   100.93     LegendNANA
14:00 4.1 2.1 87 15 8   100.88     LegendNANA
15:00 5.0 2.1 81 15 15   100.80     LegendNANA
16:00 4.7 2.2 84 16 12   100.74     LegendNANA
17:00 3.3 1.6 89 15 15   100.68     LegendNANA
18:00 3.3 1.5 88 15 21   100.59     LegendNANA
19:00 3.2 1.0 86 16 16   100.52     LegendNANA
20:00 4.3 0.6 77 17 18   100.45     LegendNANA
21:00 4.1 0.8 79 13 21   100.33     LegendNANA
22:00 4.4 1.7 83 14 25   100.15     LegendNANA
23:00 4.4 1.6 82 15 28   100.02     LegendNANA

Notes on Data Quality.

Legend

  • E = Estimated
  • M = Missing
  • NA = Not Available
  • ‡ = Partner data that is not subject to review by the National Climate Archives
Date modified: